Flag for U.S.A. Weather past 2 weeks in Redlands, California, U.S.A.

Now
72 °F

Clear.


Feels Like: 71 °F
Forecast: 69 / 91 °F
Wind: 5 mph from Northwest

Location: Riverside / March Air Force Base

Current Time: Jul 31, 2015 at 2:59:15 AM

Latest Report: Jul 31, 2015 at 1:58 AM


Visibility: 10 mi

Pressure: 29.99 "Hg

Humidity: 82%

Dew point: 66 °F

Location of RedlandsLocation

Historic Weather in Redlands — Graph

°F

Redlands temperature yesterday

Maximum temperature yesterday: 96 °F (at 2:58 PM)
Minimum temperature yesterday: 70 °F (at 2:58 AM)
Average temperature yesterday: 82 °F

Past Weeks' High & Low Weather Summary

 TemperatureHumidityPressure
High96 °F (Jul 17, 2:58 PM)100% (Jul 16, 4:58 AM)30.13 "Hg (Jul 16, 4:58 AM)
Low58 °F (Jul 16, 4:58 AM)12% (Jul 17, 11:58 AM)29.77 "Hg (Jul 17, 3:58 PM)
Average76 °F66%29.93 "Hg
* Reported Jul 16 12:58 AM — Jul 31 12:58 AM, Redlands, Weather by CustomWeather, © 2015

Note: Actual official high and low records may vary slightly from our data, if they occured in-between our weather recording intervals... More about our weather records

Advertising

Redlands weather history for previous 24 hours

 ConditionsComfort  
Time TempWeatherWind HumidityBarometerVisibility
12:58 AM
Fri, Jul 31
73 °FClear.5 mph79%30.00 "Hg10 mi
11:58 PM
Thu, Jul 30
75 °FClear.7 mph73%30.00 "Hg10 mi
10:58 PM77 °FClear.3 mph67%30.00 "Hg10 mi
9:58 PM78 °FClear.No wind63%29.99 "Hg10 mi
8:58 PM80 °FClear.7 mph61%29.98 "Hg10 mi
7:58 PM83 °FSunny.No wind52%29.98 "Hg10 mi
6:58 PM84 °FBroken clouds.7 mph48%29.97 "Hg10 mi
5:58 PM86 °FThunderstorms. Broken clouds.15 mph46%29.97 "Hg10 mi
4:58 PM92 °FScattered clouds.16 mph41%29.91 "Hg10 mi
3:58 PM92 °FScattered clouds.17 mph42%29.91 "Hg10 mi
2:58 PM96 °FScattered clouds.10 mph37%29.92 "Hg10 mi
2:00 PM95 °FPassing clouds.7 mph36%29.99 "Hg10 mi
12:58 PM95 °FSunny.10 mph36%29.96 "Hg10 mi
11:58 AM94 °FPassing clouds.12 mph39%29.97 "Hg10 mi
10:58 AM91 °FSunny.8 mph44%29.98 "Hg10 mi
9:58 AM86 °FSunny.6 mph50%29.98 "Hg10 mi
8:58 AM78 °FSunny.No wind63%29.99 "Hg10 mi
7:58 AM76 °FPassing clouds.1 mph68%29.99 "Hg10 mi
6:58 AM73 °FPassing clouds.No wind72%29.96 "Hg10 mi
5:58 AM72 °FOvercast.3 mph76%29.95 "Hg10 mi
4:58 AM72 °FPassing clouds.3 mph76%29.95 "Hg10 mi
3:58 AM71 °FClear.3 mph78%29.95 "Hg10 mi
2:58 AM70 °FPassing clouds.No wind80%29.95 "Hg10 mi
Weather by CustomWeather, © 2015

See weather overviewHow to use our weather pages